Terminal Aerodrome Forecast
Issued by NWS

Home | Current Version | Previous Version | Text Only | Print | Product List | Glossary On
Versions: 1 2 3 4 5 6 7 8 9 10 11 12 13 14 15
000
FTUS41 KCAR 270525
TAFPQI
TAF
KPQI 270525Z 2706/2806 34007KT P6SM OVC019
     FM271300 03010KT 3SM -SHRA OVC008
     FM271700 04014KT P6SM OVC015
     FM271800 04014G21KT P6SM OVC015
      AMD LTD TO CLD VIS AND WIND=

USA.gov is the U.S. government's official web portal to all federal, state and local government web resources and services.